Home   Weather   Røyken   Past weeks

Flag for Norway Past Weather in Røyken, Norway — Yesterday and Last 2 Weeks

Now
55 °F

Passing clouds.


Feels Like: 49 °F
Forecast: 51 / 64 °F
Wind: 32 mph from South

Location: Statfjord B

Current Time: Sep 27, 2016 at 7:23:26 AM

Latest Report: Sep 27, 2016 at 6:50 AM


Visibility: N/A

Pressure: 29.92 "Hg

Humidity: 88%

Dew Point: 52 °F

Location of RøykenLocation

Past Weather in Røyken — Graph

°F

Røyken Temperature Yesterday

Maximum temperature yesterday: 55 °F (at 12:20 AM)
Minimum temperature yesterday: 52 °F (at 8:20 AM)
Average temperature yesterday: 55 °F

High & Low Weather Summary for the Past Weeks

 TemperatureHumidityPressure
High70 °F (Sep 16, 6:20 AM)100% (Sep 13, 3:20 AM)30.21 "Hg (Sep 13, 3:20 AM)
Low50 °F (Sep 14, 6:50 AM)60% (Sep 16, 6:20 AM)29.59 "Hg (Sep 25, 1:50 PM)
Average57 °F91%29.96 "Hg
* Reported Sep 12 5:20 AM — Sep 27 5:50 AM, Røyken, Weather by CustomWeather, © 2016

Note: Actual official high and low records may vary slightly from our data, if they occured in-between our weather recording intervals... More about our weather records

Advertising

Røyken Weather History for the Previous 24 Hours

Scroll right to see more
 ConditionsComfort  
Time TempWeatherWind HumidityBarometerVisibility
5:50 AM
Tue, Sep 27
55 °FLight rain. Passing clouds.26 mph94%29.95 "HgN/A
5:20 AM55 °FPassing clouds.29 mph88%29.98 "HgN/A
4:50 AM55 °FSprinkles. Passing clouds.30 mph88%29.98 "HgN/A
4:20 AM55 °FPassing clouds.29 mph82%30.01 "HgN/A
3:50 AM55 °FPartly cloudy.29 mph88%30.01 "HgN/A
3:20 AM55 °FPassing clouds.26 mph88%30.01 "HgN/A
2:50 AM54 °FPassing clouds.26 mph88%30.04 "HgN/A
2:20 AM54 °FPassing clouds.29 mph88%30.04 "HgN/A
1:50 AM55 °FPassing clouds.29 mph82%30.04 "HgN/A
1:20 AM54 °FPassing clouds.30 mph82%30.04 "HgN/A
12:50 AM55 °FPassing clouds.30 mph82%30.04 "HgN/A
12:20 AM54 °FPassing clouds.29 mph88%30.04 "HgN/A
11:50 PM
Mon, Sep 26
54 °FPassing clouds.30 mph88%30.07 "HgN/A
11:20 PM54 °FPassing clouds.32 mph88%30.07 "HgN/A
10:50 PM54 °FSprinkles. Partly cloudy.32 mph88%30.04 "HgN/A
10:20 PM55 °FPassing clouds.30 mph77%30.04 "HgN/A
9:50 PM54 °FPassing clouds.28 mph82%30.04 "HgN/A
9:20 PM54 °FPassing clouds.29 mph82%30.04 "HgN/A
8:50 PM54 °FPassing clouds.31 mph82%30.04 "HgN/A
8:20 PM55 °FPassing clouds.30 mph82%30.04 "HgN/A
7:50 PM55 °FPassing clouds.26 mph82%30.04 "HgN/A
7:20 PM55 °FPassing clouds.29 mph77%30.04 "HgN/A
6:50 PM55 °FPassing clouds.28 mph82%30.04 "HgN/A
6:20 PM55 °FPassing clouds.26 mph82%30.04 "HgN/A
5:50 PM55 °FPassing clouds.28 mph77%30.04 "HgN/A
5:20 PM55 °FCool.25 mph77%30.04 "HgN/A
4:50 PM55 °FPassing clouds.24 mph77%30.04 "HgN/A
4:20 PM55 °FScattered clouds.26 mph82%30.04 "HgN/A
3:50 PM55 °FPassing clouds.28 mph77%30.04 "HgN/A
3:20 PM55 °FCool.24 mph77%30.01 "HgN/A
2:50 PM55 °FCool.23 mph77%30.01 "HgN/A
2:20 PM55 °FPassing clouds.23 mph77%30.01 "HgN/A
1:50 PM55 °FCool.22 mph77%30.01 "HgN/A
1:20 PM55 °FPassing clouds.22 mph77%29.98 "HgN/A
12:50 PM55 °FCool.21 mph82%29.98 "HgN/A
12:20 PM55 °FPassing clouds.23 mph77%29.98 "HgN/A
11:50 AM55 °FPassing clouds.22 mph77%29.95 "HgN/A
11:20 AM55 °FPassing clouds.24 mph77%29.95 "HgN/A
10:50 AM54 °FPassing clouds.25 mph82%29.92 "HgN/A
10:20 AM54 °FScattered clouds.24 mph88%29.92 "HgN/A
9:50 AM54 °FPassing clouds.24 mph88%29.92 "HgN/A
9:20 AM54 °FPassing clouds.23 mph82%29.89 "HgN/A
8:50 AM54 °FBroken clouds.21 mph82%29.89 "HgN/A
8:20 AM52 °FRain. Fog.23 mph88%29.89 "Hg1 mi
7:50 AM54 °FRain showers. Fog.24 mph77%29.89 "Hg2 mi
7:20 AM55 °FPassing clouds.24 mph82%29.86 "HgN/A
Weather by CustomWeather, © 2016

See weather overviewHow to use our weather pages